Time,TemperatureF,DewpointF,PressureIn,WindDirection,WindDirectionDegrees,WindSpeedMPH,WindSpeedGustMPH,Humidity,HourlyPrecipIn,Conditions,Clouds,dailyrainin,SoftwareType,DateUTC
2013-11-05 00:01:00,35.3,31.2,30.69,NNE,17,0.0,0.0,85,0.00,,,0.00,LWC V2.10 B1702,2013-11-05 05:01:00,
2013-11-05 00:02:00,35.3,31.2,30.69,NNE,17,0.0,0.0,85,0.00,,,0.00,LWC V2.10 B1702,2013-11-05 05:02:00,
2013-11-05 00:07:00,35.3,31.2,30.69,NNE,17,0.0,0.0,85,0.00,,,0.00,LWC V2.10 B1702,2013-11-05 05:07:00,
2013-11-05 00:12:00,35.4,31.1,30.69,NNE,17,0.0,0.0,84,0.00,,,0.00,LWC V2.10 B1702,2013-11-05 05:12:00,
2013-11-05 00:17:00,35.5,31.4,30.69,NE,51,0.0,0.0,85,0.00,,,0.00,LWC V2.10 B1702,2013-11-05 05:17:00,
2013-11-05 00:22:00,35.7,31.4,30.69,NE,51,0.0,0.0,84,0.00,,,0.00,LWC V2.10 B1702,2013-11-05 05:22:00,
2013-11-05 00:27:00,35.8,31.4,30.69,NE,51,0.0,0.0,84,0.00,,,0.00,LWC V2.10 B1702,2013-11-05 05:27:00,
2013-11-05 00:32:00,35.9,31.5,30.69,NE,51,0.0,0.0,84,0.00,,,0.00,LWC V2.10 B1702,2013-11-05 05:32:00,
2013-11-05 00:37:00,36.0,31.6,30.69,NE,51,0.0,0.0,84,0.00,,,0.00,LWC V2.10 B1702,2013-11-05 05:37:00,
2013-11-05 00:42:00,36.1,31.7,30.69,NE,51,0.0,0.0,84,0.00,,,0.00,LWC V2.10 B1702,2013-11-05 05:42:00,
2013-11-05 00:47:00,36.2,31.8,30.68,NE,51,0.0,0.0,84,0.00,,,0.00,LWC V2.10 B1702,2013-11-05 05:47:00,
2013-11-05 00:52:00,36.3,31.9,30.68,NE,51,0.0,0.0,84,0.00,,,0.00,LWC V2.10 B1702,2013-11-05 05:52:00,
2013-11-05 00:57:00,36.3,31.9,30.68,NE,51,0.0,0.0,84,0.00,,,0.00,LWC V2.10 B1702,2013-11-05 05:57:00,
2013-11-05 01:02:00,36.3,31.9,30.68,NE,51,0.0,0.0,84,0.00,,,0.00,LWC V2.10 B1702,2013-11-05 06:02:00,
2013-11-05 01:07:00,36.4,31.7,30.69,NE,51,0.0,0.0,83,0.00,,,0.00,LWC V2.10 B1702,2013-11-05 06:07:00,
2013-11-05 01:12:00,36.4,32.0,30.68,NE,51,0.0,0.0,84,0.00,,,0.00,LWC V2.10 B1702,2013-11-05 06:12:00,
2013-11-05 01:17:00,36.3,31.6,30.68,NE,51,0.0,0.0,83,0.00,,,0.00,LWC V2.10 B1702,2013-11-05 06:17:00,
2013-11-05 01:22:00,36.3,31.6,30.68,NE,51,0.0,0.0,83,0.00,,,0.00,LWC V2.10 B1702,2013-11-05 06:22:00,
2013-11-05 01:27:00,36.2,31.8,30.68,NE,51,0.0,0.0,84,0.00,,,0.00,LWC V2.10 B1702,2013-11-05 06:27:00,
2013-11-05 01:32:00,36.1,31.7,30.69,NE,51,0.0,0.0,84,0.00,,,0.00,LWC V2.10 B1702,2013-11-05 06:32:00,
2013-11-05 01:37:00,36.0,31.6,30.69,NE,51,0.0,0.0,84,0.00,,,0.00,LWC V2.10 B1702,2013-11-05 06:37:00,
2013-11-05 01:42:00,36.0,31.6,30.69,NE,51,0.0,0.0,84,0.00,,,0.00,LWC V2.10 B1702,2013-11-05 06:42:00,
2013-11-05 01:47:00,35.9,31.8,30.68,NE,51,0.0,0.0,85,0.00,,,0.00,LWC V2.10 B1702,2013-11-05 06:47:00,
2013-11-05 01:52:00,35.8,31.7,30.69,NE,51,0.0,0.0,85,0.00,,,0.00,LWC V2.10 B1702,2013-11-05 06:52:00,
2013-11-05 01:57:00,35.7,31.6,30.68,NE,51,0.0,0.0,85,0.00,,,0.00,LWC V2.10 B1702,2013-11-05 06:57:00,
2013-11-05 02:02:00,35.6,31.5,30.68,NE,51,0.0,0.0,85,0.00,,,0.00,LWC V2.10 B1702,2013-11-05 07:02:00,
2013-11-05 02:07:00,35.5,31.7,30.68,NE,51,0.0,0.0,86,0.00,,,0.00,LWC V2.10 B1702,2013-11-05 07:07:00,
2013-11-05 02:12:00,35.4,31.6,30.68,NE,51,0.0,0.0,86,0.00,,,0.00,LWC V2.10 B1702,2013-11-05 07:12:00,
2013-11-05 02:17:00,35.3,31.5,30.67,NE,51,0.0,0.0,86,0.00,,,0.00,LWC V2.10 B1702,2013-11-05 07:17:00,
2013-11-05 02:22:00,35.2,31.4,30.67,NE,51,0.0,0.0,86,0.00,,,0.00,LWC V2.10 B1702,2013-11-05 07:22:00,
2013-11-05 02:27:00,35.1,31.3,30.68,NE,48,0.0,0.0,86,0.00,,,0.00,LWC V2.10 B1702,2013-11-05 07:27:00,
2013-11-05 02:32:00,35.0,31.2,30.68,NE,48,0.0,0.0,86,0.00,,,0.00,LWC V2.10 B1702,2013-11-05 07:32:00,
2013-11-05 02:37:00,35.0,31.5,30.68,NE,49,0.0,0.0,87,0.00,,,0.00,LWC V2.10 B1702,2013-11-05 07:37:00,
2013-11-05 02:42:00,34.9,31.4,30.68,NE,49,0.0,0.0,87,0.00,,,0.00,LWC V2.10 B1702,2013-11-05 07:42:00,
2013-11-05 02:47:00,34.8,31.3,30.68,NE,49,0.0,0.0,87,0.00,,,0.00,LWC V2.10 B1702,2013-11-05 07:47:00,
2013-11-05 02:52:00,34.9,31.4,30.69,NE,49,0.0,0.0,87,0.00,,,0.00,LWC V2.10 B1702,2013-11-05 07:52:00,
2013-11-05 02:57:00,34.9,31.7,30.69,NE,49,0.0,0.0,88,0.00,,,0.00,LWC V2.10 B1702,2013-11-05 07:57:00,
2013-11-05 03:02:00,34.9,31.7,30.68,NE,49,0.0,0.0,88,0.00,,,0.00,LWC V2.10 B1702,2013-11-05 08:02:00,
2013-11-05 03:07:00,35.0,31.8,30.69,NE,49,0.0,0.0,88,0.00,,,0.00,LWC V2.10 B1702,2013-11-05 08:07:00,
2013-11-05 03:12:00,35.1,31.9,30.69,NE,49,0.0,0.0,88,0.00,,,0.00,LWC V2.10 B1702,2013-11-05 08:12:00,
2013-11-05 03:17:00,35.2,32.0,30.69,NE,49,0.0,0.0,88,0.00,,,0.00,LWC V2.10 B1702,2013-11-05 08:17:00,
2013-11-05 03:22:00,35.2,32.3,30.69,NE,49,0.0,0.0,89,0.00,,,0.00,LWC V2.10 B1702,2013-11-05 08:22:00,
2013-11-05 03:27:00,35.3,32.4,30.69,NE,49,0.0,0.0,89,0.00,,,0.00,LWC V2.10 B1702,2013-11-05 08:27:00,
2013-11-05 03:32:00,35.5,32.6,30.69,NE,49,0.0,0.0,89,0.00,,,0.00,LWC V2.10 B1702,2013-11-05 08:32:00,
2013-11-05 03:37:00,35.7,32.8,30.68,NE,49,0.0,0.0,89,0.00,,,0.00,LWC V2.10 B1702,2013-11-05 08:37:00,
2013-11-05 03:42:00,35.8,32.9,30.69,NE,49,0.0,0.0,89,0.00,,,0.00,LWC V2.10 B1702,2013-11-05 08:42:00,
2013-11-05 03:47:00,35.9,32.7,30.69,NE,49,0.0,0.0,88,0.00,,,0.00,LWC V2.10 B1702,2013-11-05 08:47:00,
2013-11-05 03:52:00,36.1,32.9,30.69,NE,49,0.0,0.0,88,0.00,,,0.00,LWC V2.10 B1702,2013-11-05 08:52:00,
2013-11-05 03:57:00,36.3,33.1,30.69,NE,48,0.0,0.0,88,0.00,,,0.00,LWC V2.10 B1702,2013-11-05 08:57:00,
2013-11-05 04:02:00,36.4,32.9,30.69,NE,49,0.0,0.0,87,0.00,,,0.00,LWC V2.10 B1702,2013-11-05 09:02:00,
2013-11-05 04:07:00,36.6,33.1,30.68,NE,47,0.0,0.0,87,0.00,,,0.00,LWC V2.10 B1702,2013-11-05 09:07:00,
2013-11-05 04:12:00,36.7,32.9,30.68,NE,47,0.0,0.0,86,0.00,,,0.00,LWC V2.10 B1702,2013-11-05 09:12:00,
2013-11-05 04:17:00,36.8,33.0,30.68,NE,47,0.0,0.0,86,0.00,,,0.00,LWC V2.10 B1702,2013-11-05 09:17:00,
2013-11-05 04:22:00,36.9,32.8,30.68,NE,43,0.0,0.0,85,0.00,,,0.00,LWC V2.10 B1702,2013-11-05 09:22:00,
2013-11-05 04:27:00,36.9,32.8,30.68,NE,43,0.0,0.0,85,0.00,,,0.00,LWC V2.10 B1702,2013-11-05 09:27:00,
2013-11-05 04:32:00,37.0,32.9,30.68,NE,44,0.0,0.0,85,0.00,,,0.00,LWC V2.10 B1702,2013-11-05 09:32:00,
2013-11-05 04:37:00,36.9,32.5,30.68,NE,44,0.0,0.0,84,0.00,,,0.00,LWC V2.10 B1702,2013-11-05 09:37:00,
2013-11-05 04:42:00,36.8,32.1,30.67,NE,44,0.0,0.0,83,0.00,,,0.00,LWC V2.10 B1702,2013-11-05 09:42:00,
2013-11-05 04:47:00,36.6,31.9,30.68,NE,42,0.0,0.0,83,0.00,,,0.00,LWC V2.10 B1702,2013-11-05 09:47:00,
2013-11-05 04:52:00,36.4,31.1,30.68,NE,42,0.0,0.0,81,0.00,,,0.00,LWC V2.10 B1702,2013-11-05 09:52:00,
2013-11-05 04:57:00,36.2,30.9,30.68,NE,42,0.0,0.0,81,0.00,,,0.00,LWC V2.10 B1702,2013-11-05 09:57:00,
2013-11-05 05:02:00,36.1,31.1,30.68,NE,42,0.0,0.0,82,0.00,,,0.00,LWC V2.10 B1702,2013-11-05 10:02:00,
2013-11-05 05:07:00,35.9,31.0,30.68,NE,42,0.0,0.0,82,0.00,,,0.00,LWC V2.10 B1702,2013-11-05 10:07:00,
2013-11-05 05:12:00,35.7,31.1,30.68,NE,43,0.0,0.0,83,0.00,,,0.00,LWC V2.10 B1702,2013-11-05 10:12:00,
2013-11-05 05:17:00,35.4,30.8,30.68,NE,43,0.0,0.0,83,0.00,,,0.00,LWC V2.10 B1702,2013-11-05 10:17:00,
2013-11-05 05:22:00,35.1,30.8,30.69,NE,43,0.0,0.0,84,0.00,,,0.00,LWC V2.10 B1702,2013-11-05 10:22:00,
2013-11-05 05:27:00,35.0,30.7,30.69,NE,43,0.0,0.0,84,0.00,,,0.00,LWC V2.10 B1702,2013-11-05 10:27:00,
2013-11-05 05:32:00,34.9,30.6,30.68,NE,43,0.0,0.0,84,0.00,,,0.00,LWC V2.10 B1702,2013-11-05 10:32:00,
2013-11-05 05:37:00,34.8,30.8,30.69,NE,42,0.0,0.0,85,0.00,,,0.00,LWC V2.10 B1702,2013-11-05 10:37:00,
2013-11-05 05:42:00,34.7,30.7,30.69,NE,42,0.0,0.0,85,0.00,,,0.00,LWC V2.10 B1702,2013-11-05 10:42:00,
2013-11-05 05:47:00,34.7,30.7,30.69,NE,42,0.0,0.0,85,0.00,,,0.00,LWC V2.10 B1702,2013-11-05 10:47:00,
2013-11-05 05:52:00,34.7,30.7,30.69,NE,36,0.0,0.0,85,0.00,,,0.00,LWC V2.10 B1702,2013-11-05 10:52:00,
2013-11-05 05:57:00,34.7,30.7,30.69,NE,42,0.0,0.0,85,0.00,,,0.00,LWC V2.10 B1702,2013-11-05 10:57:00,
2013-11-05 06:02:00,34.8,30.8,30.69,NE,42,0.0,0.0,85,0.00,,,0.00,LWC V2.10 B1702,2013-11-05 11:02:00,
2013-11-05 06:07:00,34.8,30.8,30.69,NE,42,0.0,0.0,85,0.00,,,0.00,LWC V2.10 B1702,2013-11-05 11:07:00,
2013-11-05 06:12:00,34.8,30.5,30.68,NE,40,0.0,0.0,84,0.00,,,0.00,LWC V2.10 B1702,2013-11-05 11:12:00,
2013-11-05 06:17:00,34.9,30.6,30.69,NE,40,0.0,0.0,84,0.00,,,0.00,LWC V2.10 B1702,2013-11-05 11:17:00,
2013-11-05 06:22:00,34.9,30.6,30.69,NE,40,0.0,0.0,84,0.00,,,0.00,LWC V2.10 B1702,2013-11-05 11:22:00,
2013-11-05 06:27:00,34.9,30.6,30.69,NE,41,0.0,0.0,84,0.00,,,0.00,LWC V2.10 B1702,2013-11-05 11:27:00,
2013-11-05 06:32:00,34.8,30.5,30.69,NE,41,0.0,0.0,84,0.00,,,0.00,LWC V2.10 B1702,2013-11-05 11:32:00,
2013-11-05 06:37:00,34.7,30.4,30.69,NE,41,0.0,0.0,84,0.00,,,0.00,LWC V2.10 B1702,2013-11-05 11:37:00,
2013-11-05 06:42:00,34.6,30.3,30.69,NE,41,0.0,0.0,84,0.00,,,0.00,LWC V2.10 B1702,2013-11-05 11:42:00,
2013-11-05 06:47:00,34.6,30.3,30.69,NE,42,0.0,0.0,84,0.00,,,0.00,LWC V2.10 B1702,2013-11-05 11:47:00,
2013-11-05 06:52:00,34.5,30.5,30.69,NE,42,0.0,0.0,85,0.00,,,0.00,LWC V2.10 B1702,2013-11-05 11:52:00,
2013-11-05 06:57:00,34.5,30.2,30.68,NE,42,0.0,0.0,84,0.00,,,0.00,LWC V2.10 B1702,2013-11-05 11:57:00,
2013-11-05 07:02:00,34.4,30.1,30.69,NE,42,0.0,0.0,84,0.00,,,0.00,LWC V2.10 B1702,2013-11-05 12:02:00,
2013-11-05 07:07:00,34.5,30.2,30.69,NE,42,0.0,0.0,84,0.00,,,0.00,LWC V2.10 B1702,2013-11-05 12:07:00,
2013-11-05 07:12:00,34.5,30.2,30.69,NE,42,0.0,0.0,84,0.00,,,0.00,LWC V2.10 B1702,2013-11-05 12:12:00,
2013-11-05 07:17:00,34.5,30.2,30.70,NE,41,0.0,0.0,84,0.00,,,0.00,LWC V2.10 B1702,2013-11-05 12:17:00,
2013-11-05 07:22:00,34.6,30.3,30.69,NE,40,0.0,0.0,84,0.00,,,0.00,LWC V2.10 B1702,2013-11-05 12:22:00,
2013-11-05 07:27:00,34.7,30.4,30.69,North,9,0.0,0.0,84,0.00,,,0.00,LWC V2.10 B1702,2013-11-05 12:27:00,
2013-11-05 07:32:00,34.8,30.5,30.69,North,9,0.0,0.0,84,0.00,,,0.00,LWC V2.10 B1702,2013-11-05 12:32:00,
2013-11-05 07:37:00,34.9,30.3,30.69,NNE,14,0.0,0.0,83,0.00,,,0.00,LWC V2.10 B1702,2013-11-05 12:37:00,
2013-11-05 07:42:00,35.1,30.5,30.69,NNE,14,0.0,0.0,83,0.00,,,0.00,LWC V2.10 B1702,2013-11-05 12:42:00,
2013-11-05 07:47:00,35.3,30.7,30.69,NNE,15,0.0,1.0,83,0.00,,,0.00,LWC V2.10 B1702,2013-11-05 12:47:00,
2013-11-05 07:52:00,35.6,31.0,30.69,NNE,17,0.0,2.0,83,0.00,,,0.00,LWC V2.10 B1702,2013-11-05 12:52:00,
2013-11-05 07:57:00,36.0,31.0,30.69,NNE,24,0.0,1.0,82,0.00,,,0.00,LWC V2.10 B1702,2013-11-05 12:57:00,
2013-11-05 08:02:00,36.4,31.4,30.70,NNE,24,1.0,2.0,82,0.00,,,0.00,LWC V2.10 B1702,2013-11-05 13:02:00,
2013-11-05 08:07:00,36.8,31.5,30.70,NNE,24,0.0,1.0,81,0.00,,,0.00,LWC V2.10 B1702,2013-11-05 13:07:00,
2013-11-05 08:12:00,37.3,32.0,30.70,NNE,30,0.0,1.0,81,0.00,,,0.00,LWC V2.10 B1702,2013-11-05 13:12:00,
2013-11-05 08:17:00,37.8,32.5,30.69,NE,38,1.0,3.0,81,0.00,,,0.00,LWC V2.10 B1702,2013-11-05 13:17:00,
2013-11-05 08:22:00,38.3,32.7,30.70,NNE,28,0.0,0.0,80,0.00,,,0.00,LWC V2.10 B1702,2013-11-05 13:22:00,
2013-11-05 08:27:00,38.7,33.1,30.70,NNE,19,0.0,1.0,80,0.00,,,0.00,LWC V2.10 B1702,2013-11-05 13:27:00,
2013-11-05 08:32:00,39.3,33.3,30.69,NNE,16,3.0,3.0,79,0.00,,,0.00,LWC V2.10 B1702,2013-11-05 13:32:00,
2013-11-05 08:37:00,40.0,33.1,30.70,North,355,1.0,1.0,76,0.00,,,0.00,LWC V2.10 B1702,2013-11-05 13:37:00,
2013-11-05 08:42:00,40.5,33.2,30.69,NNE,15,0.0,2.0,75,0.00,,,0.00,LWC V2.10 B1702,2013-11-05 13:42:00,
2013-11-05 08:47:00,41.0,33.0,30.70,North,0,1.0,3.0,73,0.00,,,0.00,LWC V2.10 B1702,2013-11-05 13:47:00,
2013-11-05 08:52:00,41.4,33.1,30.70,NE,34,1.0,3.0,72,0.00,,,0.00,LWC V2.10 B1702,2013-11-05 13:52:00,
2013-11-05 08:57:00,41.8,33.4,30.70,NNE,28,1.0,1.0,72,0.00,,,0.00,LWC V2.10 B1702,2013-11-05 13:57:00,
2013-11-05 09:02:00,42.2,33.8,30.70,North,355,0.0,1.0,72,0.00,,,0.00,LWC V2.10 B1702,2013-11-05 14:02:00,
2013-11-05 09:07:00,42.5,33.8,30.70,NNE,26,3.0,3.0,71,0.00,,,0.00,LWC V2.10 B1702,2013-11-05 14:07:00,
2013-11-05 09:12:00,42.8,34.1,30.70,NNW,330,0.0,2.0,71,0.00,,,0.00,LWC V2.10 B1702,2013-11-05 14:12:00,
2013-11-05 09:17:00,43.0,33.9,30.70,North,10,0.0,1.0,70,0.00,,,0.00,LWC V2.10 B1702,2013-11-05 14:17:00,
2013-11-05 09:22:00,43.3,34.2,30.70,NNE,29,0.0,2.0,70,0.00,,,0.00,LWC V2.10 B1702,2013-11-05 14:22:00,
2013-11-05 09:27:00,43.6,34.5,30.70,East,90,1.0,2.0,70,0.00,,,0.00,LWC V2.10 B1702,2013-11-05 14:27:00,
2013-11-05 09:32:00,43.9,34.8,30.70,NNE,28,0.0,1.0,70,0.00,,,0.00,LWC V2.10 B1702,2013-11-05 14:32:00,
2013-11-05 09:37:00,44.2,34.7,30.70,NE,42,0.0,2.0,69,0.00,,,0.00,LWC V2.10 B1702,2013-11-05 14:37:00,
2013-11-05 09:42:00,44.3,34.8,30.70,NE,36,0.0,3.0,69,0.00,,,0.00,LWC V2.10 B1702,2013-11-05 14:42:00,
2013-11-05 09:47:00,44.6,35.1,30.70,NNE,13,2.0,2.0,69,0.00,,,0.00,LWC V2.10 B1702,2013-11-05 14:47:00,
2013-11-05 09:52:00,44.9,35.0,30.70,NNE,15,0.0,4.0,68,0.00,,,0.00,LWC V2.10 B1702,2013-11-05 14:52:00,
2013-11-05 09:57:00,45.1,34.8,30.70,NNE,20,1.0,2.0,67,0.00,,,0.00,LWC V2.10 B1702,2013-11-05 14:57:00,
2013-11-05 10:02:00,45.3,35.0,30.70,East,84,0.0,0.0,67,0.00,,,0.00,LWC V2.10 B1702,2013-11-05 15:02:00,
2013-11-05 10:07:00,45.6,35.3,30.70,ENE,67,0.0,2.0,67,0.00,,,0.00,LWC V2.10 B1702,2013-11-05 15:07:00,
2013-11-05 10:12:00,45.9,35.2,30.70,NNE,18,0.0,4.0,66,0.00,,,0.00,LWC V2.10 B1702,2013-11-05 15:12:00,
2013-11-05 10:17:00,46.2,35.1,30.69,North,351,0.0,1.0,65,0.00,,,0.00,LWC V2.10 B1702,2013-11-05 15:17:00,
2013-11-05 10:22:00,46.6,35.9,30.69,NNW,327,0.0,0.0,66,0.00,,,0.00,LWC V2.10 B1702,2013-11-05 15:22:00,
2013-11-05 10:27:00,46.9,35.8,30.69,WNW,290,0.0,0.0,65,0.00,,,0.00,LWC V2.10 B1702,2013-11-05 15:27:00,
2013-11-05 10:32:00,47.2,35.3,30.68,ESE,109,1.0,1.0,63,0.00,,,0.00,LWC V2.10 B1702,2013-11-05 15:32:00,
2013-11-05 10:37:00,47.5,35.9,30.68,WSW,258,3.0,4.0,64,0.00,,,0.00,LWC V2.10 B1702,2013-11-05 15:37:00,
2013-11-05 10:42:00,47.6,34.8,30.68,West,275,0.0,0.0,61,0.00,,,0.00,LWC V2.10 B1702,2013-11-05 15:42:00,
2013-11-05 10:47:00,47.8,35.4,30.68,West,275,0.0,1.0,62,0.00,,,0.00,LWC V2.10 B1702,2013-11-05 15:47:00,
2013-11-05 10:52:00,48.0,36.0,30.68,SSW,202,0.0,1.0,63,0.00,,,0.00,LWC V2.10 B1702,2013-11-05 15:52:00,
2013-11-05 10:57:00,48.4,36.4,30.67,ESE,117,1.0,2.0,63,0.00,,,0.00,LWC V2.10 B1702,2013-11-05 15:57:00,
2013-11-05 11:02:00,48.8,35.5,30.67,SE,136,0.0,1.0,60,0.00,,,0.00,LWC V2.10 B1702,2013-11-05 16:02:00,
2013-11-05 11:07:00,49.0,36.6,30.67,South,171,0.0,1.0,62,0.00,,,0.00,LWC V2.10 B1702,2013-11-05 16:07:00,
2013-11-05 11:12:00,49.3,36.0,30.67,SW,227,0.0,0.0,60,0.00,,,0.00,LWC V2.10 B1702,2013-11-05 16:12:00,
2013-11-05 11:17:00,49.5,36.2,30.66,East,92,0.0,0.0,60,0.00,,,0.00,LWC V2.10 B1702,2013-11-05 16:17:00,
2013-11-05 11:22:00,49.5,36.2,30.66,WSW,245,0.0,2.0,60,0.00,,,0.00,LWC V2.10 B1702,2013-11-05 16:22:00,
2013-11-05 11:27:00,49.9,36.1,30.66,SSE,159,1.0,1.0,59,0.00,,,0.00,LWC V2.10 B1702,2013-11-05 16:27:00,
2013-11-05 11:32:00,50.1,36.3,30.66,SSW,193,0.0,0.0,59,0.00,,,0.00,LWC V2.10 B1702,2013-11-05 16:32:00,
2013-11-05 11:37:00,50.3,36.1,30.66,NW,315,1.0,1.0,58,0.00,,,0.00,LWC V2.10 B1702,2013-11-05 16:37:00,
2013-11-05 11:42:00,50.1,36.3,30.66,SW,229,2.0,4.0,59,0.00,,,0.00,LWC V2.10 B1702,2013-11-05 16:42:00,
2013-11-05 11:47:00,49.9,36.1,30.66,North,355,1.0,3.0,59,0.00,,,0.00,LWC V2.10 B1702,2013-11-05 16:47:00,
2013-11-05 11:52:00,49.6,36.3,30.65,West,277,2.0,2.0,60,0.00,,,0.00,LWC V2.10 B1702,2013-11-05 16:52:00,
2013-11-05 11:57:00,49.6,35.9,30.65,NW,317,0.0,2.0,59,0.00,,,0.00,LWC V2.10 B1702,2013-11-05 16:57:00,
2013-11-05 12:02:00,49.6,35.9,30.65,WNW,301,0.0,2.0,59,0.00,,,0.00,LWC V2.10 B1702,2013-11-05 17:02:00,
2013-11-05 12:07:00,49.4,36.5,30.65,WNW,294,1.0,3.0,61,0.00,,,0.00,LWC V2.10 B1702,2013-11-05 17:07:00,
2013-11-05 12:12:00,49.1,36.2,30.64,West,272,0.0,3.0,61,0.00,,,0.00,LWC V2.10 B1702,2013-11-05 17:12:00,
2013-11-05 12:17:00,49.2,36.3,30.64,WNW,294,0.0,2.0,61,0.00,,,0.00,LWC V2.10 B1702,2013-11-05 17:17:00,
2013-11-05 12:22:00,49.4,36.5,30.64,NNW,333,0.0,2.0,61,0.00,,,0.00,LWC V2.10 B1702,2013-11-05 17:22:00,
2013-11-05 12:27:00,49.6,36.7,30.64,North,355,5.0,5.0,61,0.00,,,0.00,LWC V2.10 B1702,2013-11-05 17:27:00,
2013-11-05 12:32:00,49.7,36.8,30.64,WSW,246,1.0,4.0,61,0.00,,,0.00,LWC V2.10 B1702,2013-11-05 17:32:00,
2013-11-05 12:37:00,49.6,36.7,30.64,WNW,303,1.0,2.0,61,0.00,,,0.00,LWC V2.10 B1702,2013-11-05 17:37:00,
2013-11-05 12:42:00,49.6,36.3,30.64,West,279,1.0,1.0,60,0.00,,,0.00,LWC V2.10 B1702,2013-11-05 17:42:00,
2013-11-05 12:47:00,49.6,36.7,30.64,WNW,296,0.0,2.0,61,0.00,,,0.00,LWC V2.10 B1702,2013-11-05 17:47:00,
2013-11-05 12:52:00,49.9,37.4,30.64,WNW,303,1.0,3.0,62,0.00,,,0.00,LWC V2.10 B1702,2013-11-05 17:52:00,
2013-11-05 12:57:00,50.2,36.9,30.64,NW,317,0.0,3.0,60,0.00,,,0.00,LWC V2.10 B1702,2013-11-05 17:57:00,
2013-11-05 13:02:00,49.9,35.7,30.64,NNW,331,2.0,2.0,58,0.00,,,0.00,LWC V2.10 B1702,2013-11-05 18:02:00,
2013-11-05 13:07:00,49.7,36.8,30.63,NNW,340,1.0,4.0,61,0.00,,,0.00,LWC V2.10 B1702,2013-11-05 18:07:00,
2013-11-05 13:12:00,49.9,37.0,30.63,SW,234,1.0,3.0,61,0.00,,,0.00,LWC V2.10 B1702,2013-11-05 18:12:00,
2013-11-05 13:17:00,50.3,37.0,30.64,SW,222,2.0,7.0,60,0.00,,,0.00,LWC V2.10 B1702,2013-11-05 18:17:00,
2013-11-05 13:22:00,50.7,36.5,30.63,SSW,192,0.0,1.0,58,0.00,,,0.00,LWC V2.10 B1702,2013-11-05 18:22:00,
2013-11-05 13:27:00,51.0,36.7,30.63,NNE,30,0.0,1.0,58,0.00,,,0.00,LWC V2.10 B1702,2013-11-05 18:27:00,
2013-11-05 13:32:00,51.0,35.9,30.63,NNW,333,2.0,4.0,56,0.00,,,0.00,LWC V2.10 B1702,2013-11-05 18:32:00,
2013-11-05 13:37:00,50.7,36.5,30.63,SSW,195,1.0,4.0,58,0.00,,,0.00,LWC V2.10 B1702,2013-11-05 18:37:00,
2013-11-05 13:42:00,50.7,36.9,30.62,NNW,343,1.0,3.0,59,0.00,,,0.00,LWC V2.10 B1702,2013-11-05 18:42:00,
2013-11-05 13:47:00,50.6,36.4,30.62,West,262,3.0,3.0,58,0.00,,,0.00,LWC V2.10 B1702,2013-11-05 18:47:00,
2013-11-05 13:52:00,50.3,36.1,30.62,West,277,0.0,3.0,58,0.00,,,0.00,LWC V2.10 B1702,2013-11-05 18:52:00,
2013-11-05 13:57:00,50.0,35.8,30.62,NW,317,3.0,3.0,58,0.00,,,0.00,LWC V2.10 B1702,2013-11-05 18:57:00,
2013-11-05 14:02:00,49.9,36.6,30.62,West,269,0.0,3.0,60,0.00,,,0.00,LWC V2.10 B1702,2013-11-05 19:02:00,
2013-11-05 14:07:00,49.8,36.9,30.62,West,261,1.0,2.0,61,0.00,,,0.00,LWC V2.10 B1702,2013-11-05 19:07:00,
2013-11-05 14:12:00,49.7,36.4,30.61,SSW,213,1.0,1.0,60,0.00,,,0.00,LWC V2.10 B1702,2013-11-05 19:12:00,
2013-11-05 14:17:00,49.7,36.0,30.61,WSW,252,0.0,0.0,59,0.00,,,0.00,LWC V2.10 B1702,2013-11-05 19:17:00,
2013-11-05 14:22:00,49.6,35.9,30.61,WSW,258,0.0,1.0,59,0.00,,,0.00,LWC V2.10 B1702,2013-11-05 19:22:00,
2013-11-05 14:27:00,49.6,36.7,30.61,SW,224,1.0,2.0,61,0.00,,,0.00,LWC V2.10 B1702,2013-11-05 19:27:00,
2013-11-05 14:32:00,49.4,36.5,30.61,West,281,0.0,2.0,61,0.00,,,0.00,LWC V2.10 B1702,2013-11-05 19:32:00,
2013-11-05 14:37:00,49.1,36.6,30.61,WSW,244,0.0,1.0,62,0.00,,,0.00,LWC V2.10 B1702,2013-11-05 19:37:00,
2013-11-05 14:42:00,48.9,36.9,30.61,WSW,247,0.0,1.0,63,0.00,,,0.00,LWC V2.10 B1702,2013-11-05 19:42:00,
2013-11-05 14:47:00,48.7,36.7,30.61,West,262,0.0,0.0,63,0.00,,,0.00,LWC V2.10 B1702,2013-11-05 19:47:00,
2013-11-05 14:52:00,48.6,37.0,30.60,West,264,0.0,0.0,64,0.00,,,0.00,LWC V2.10 B1702,2013-11-05 19:52:00,
2013-11-05 14:57:00,48.6,37.4,30.60,WSW,242,0.0,2.0,65,0.00,,,0.00,LWC V2.10 B1702,2013-11-05 19:57:00,
2013-11-05 15:02:00,48.6,37.0,30.60,NW,309,0.0,1.0,64,0.00,,,0.00,LWC V2.10 B1702,2013-11-05 20:02:00,
2013-11-05 15:07:00,48.5,36.9,30.61,NW,325,0.0,3.0,64,0.00,,,0.00,LWC V2.10 B1702,2013-11-05 20:07:00,
2013-11-05 15:12:00,48.4,36.8,30.60,SW,219,0.0,2.0,64,0.00,,,0.00,LWC V2.10 B1702,2013-11-05 20:12:00,
2013-11-05 15:17:00,48.3,36.7,30.60,SW,219,0.0,0.0,64,0.00,,,0.00,LWC V2.10 B1702,2013-11-05 20:17:00,
2013-11-05 15:22:00,48.1,36.9,30.60,SW,219,0.0,1.0,65,0.00,,,0.00,LWC V2.10 B1702,2013-11-05 20:22:00,
2013-11-05 15:27:00,47.9,37.1,30.60,SSW,213,0.0,0.0,66,0.00,,,0.00,LWC V2.10 B1702,2013-11-05 20:27:00,
2013-11-05 15:32:00,47.9,37.1,30.60,SSW,213,0.0,0.0,66,0.00,,,0.00,LWC V2.10 B1702,2013-11-05 20:32:00,
2013-11-05 15:37:00,47.8,37.4,30.60,SSW,213,0.0,0.0,67,0.00,,,0.00,LWC V2.10 B1702,2013-11-05 20:37:00,
2013-11-05 15:42:00,47.6,36.8,30.60,SSW,211,0.0,0.0,66,0.00,,,0.00,LWC V2.10 B1702,2013-11-05 20:42:00,
2013-11-05 15:47:00,47.5,37.1,30.60,East,88,0.0,0.0,67,0.00,,,0.00,LWC V2.10 B1702,2013-11-05 20:47:00,
2013-11-05 15:52:00,47.4,37.4,30.59,East,86,0.0,0.0,68,0.00,,,0.00,LWC V2.10 B1702,2013-11-05 20:52:00,
2013-11-05 15:57:00,47.1,37.1,30.59,WSW,254,0.0,0.0,68,0.00,,,0.00,LWC V2.10 B1702,2013-11-05 20:57:00,
2013-11-05 16:02:00,46.9,36.9,30.59,WSW,254,0.0,0.0,68,0.00,,,0.00,LWC V2.10 B1702,2013-11-05 21:02:00,
2013-11-05 16:07:00,46.7,36.7,30.59,WSW,254,0.0,0.0,68,0.00,,,0.00,LWC V2.10 B1702,2013-11-05 21:07:00,
2013-11-05 16:12:00,46.4,36.8,30.59,WSW,254,0.0,0.0,69,0.00,,,0.00,LWC V2.10 B1702,2013-11-05 21:12:00,
2013-11-05 16:17:00,46.1,36.5,30.59,WSW,253,0.0,0.0,69,0.00,,,0.00,LWC V2.10 B1702,2013-11-05 21:17:00,
2013-11-05 16:22:00,45.9,36.7,30.59,WSW,254,0.0,0.0,70,0.00,,,0.00,LWC V2.10 B1702,2013-11-05 21:22:00,
2013-11-05 16:27:00,45.6,36.4,30.59,WSW,254,0.0,0.0,70,0.00,,,0.00,LWC V2.10 B1702,2013-11-05 21:27:00,
2013-11-05 16:32:00,45.3,36.5,30.59,WSW,254,0.0,0.0,71,0.00,,,0.00,LWC V2.10 B1702,2013-11-05 21:32:00,
2013-11-05 16:37:00,45.0,36.5,30.59,WSW,254,0.0,0.0,72,0.00,,,0.00,LWC V2.10 B1702,2013-11-05 21:37:00,
2013-11-05 16:42:00,44.6,36.5,30.59,WSW,254,0.0,0.0,73,0.00,,,0.00,LWC V2.10 B1702,2013-11-05 21:42:00,
2013-11-05 16:47:00,44.3,36.5,30.59,WSW,254,0.0,0.0,74,0.00,,,0.00,LWC V2.10 B1702,2013-11-05 21:47:00,
2013-11-05 16:52:00,43.9,36.2,30.59,WSW,254,0.0,0.0,74,0.00,,,0.00,LWC V2.10 B1702,2013-11-05 21:52:00,
2013-11-05 16:57:00,43.5,36.1,30.59,WSW,254,0.0,0.0,75,0.00,,,0.00,LWC V2.10 B1702,2013-11-05 21:57:00,
2013-11-05 17:02:00,43.1,36.1,30.59,WSW,254,0.0,0.0,76,0.00,,,0.00,LWC V2.10 B1702,2013-11-05 22:02:00,
2013-11-05 17:07:00,42.7,35.7,30.59,WSW,254,0.0,0.0,76,0.00,,,0.00,LWC V2.10 B1702,2013-11-05 22:07:00,
2013-11-05 17:12:00,42.3,35.6,30.59,WSW,254,0.0,0.0,77,0.00,,,0.00,LWC V2.10 B1702,2013-11-05 22:12:00,
2013-11-05 17:17:00,41.9,35.5,30.58,WSW,254,0.0,0.0,78,0.00,,,0.00,LWC V2.10 B1702,2013-11-05 22:17:00,
2013-11-05 17:22:00,41.6,35.6,30.58,WSW,254,0.0,0.0,79,0.00,,,0.00,LWC V2.10 B1702,2013-11-05 22:22:00,
2013-11-05 17:27:00,41.3,35.6,30.59,WSW,254,0.0,0.0,80,0.00,,,0.00,LWC V2.10 B1702,2013-11-05 22:27:00,
2013-11-05 17:32:00,41.0,35.3,30.58,WSW,254,0.0,0.0,80,0.00,,,0.00,LWC V2.10 B1702,2013-11-05 22:32:00,
2013-11-05 17:37:00,40.8,35.4,30.59,WSW,254,0.0,0.0,81,0.00,,,0.00,LWC V2.10 B1702,2013-11-05 22:37:00,
2013-11-05 17:42:00,40.6,35.2,30.58,WSW,254,0.0,0.0,81,0.00,,,0.00,LWC V2.10 B1702,2013-11-05 22:42:00,
2013-11-05 17:47:00,40.4,35.3,30.59,WSW,254,0.0,0.0,82,0.00,,,0.00,LWC V2.10 B1702,2013-11-05 22:47:00,
2013-11-05 17:52:00,40.2,35.2,30.58,WSW,254,0.0,0.0,82,0.00,,,0.00,LWC V2.10 B1702,2013-11-05 22:52:00,
2013-11-05 17:57:00,39.9,34.9,30.58,WSW,254,0.0,0.0,82,0.00,,,0.00,LWC V2.10 B1702,2013-11-05 22:57:00,
2013-11-05 18:02:00,39.8,35.1,30.58,WSW,254,0.0,0.0,83,0.00,,,0.00,LWC V2.10 B1702,2013-11-05 23:02:00,
2013-11-05 18:07:00,39.6,34.9,30.58,WSW,254,0.0,0.0,83,0.00,,,0.00,LWC V2.10 B1702,2013-11-05 23:07:00,
2013-11-05 18:12:00,39.5,34.8,30.58,WSW,254,0.0,0.0,83,0.00,,,0.00,LWC V2.10 B1702,2013-11-05 23:12:00,
2013-11-05 18:17:00,39.4,35.0,30.58,WSW,254,0.0,0.0,84,0.00,,,0.00,LWC V2.10 B1702,2013-11-05 23:17:00,
2013-11-05 18:22:00,39.3,34.9,30.58,WSW,254,0.0,0.0,84,0.00,,,0.00,LWC V2.10 B1702,2013-11-05 23:22:00,
2013-11-05 18:27:00,39.3,34.9,30.58,WSW,254,0.0,0.0,84,0.00,,,0.00,LWC V2.10 B1702,2013-11-05 23:27:00,
2013-11-05 18:32:00,39.2,34.8,30.58,WSW,254,0.0,0.0,84,0.00,,,0.00,LWC V2.10 B1702,2013-11-05 23:32:00,
2013-11-05 18:37:00,39.1,35.0,30.58,WSW,254,0.0,0.0,85,0.00,,,0.00,LWC V2.10 B1702,2013-11-05 23:37:00,
2013-11-05 18:42:00,39.0,34.9,30.58,WSW,254,0.0,0.0,85,0.00,,,0.00,LWC V2.10 B1702,2013-11-05 23:42:00,
2013-11-05 18:47:00,38.9,34.8,30.58,WSW,254,0.0,0.0,85,0.00,,,0.00,LWC V2.10 B1702,2013-11-05 23:47:00,
2013-11-05 18:52:00,38.8,34.7,30.58,WSW,254,0.0,0.0,85,0.00,,,0.00,LWC V2.10 B1702,2013-11-05 23:52:00,
2013-11-05 18:57:00,38.7,34.6,30.58,WSW,254,0.0,0.0,85,0.00,,,0.00,LWC V2.10 B1702,2013-11-05 23:57:00,
2013-11-05 19:02:00,38.6,34.5,30.58,WSW,254,0.0,0.0,85,0.00,,,0.00,LWC V2.10 B1702,2013-11-06 00:02:00,
2013-11-05 19:07:00,38.5,34.4,30.58,WSW,254,0.0,0.0,85,0.00,,,0.00,LWC V2.10 B1702,2013-11-06 00:07:00,
2013-11-05 19:12:00,38.4,34.6,30.58,WSW,254,0.0,0.0,86,0.00,,,0.00,LWC V2.10 B1702,2013-11-06 00:12:00,
2013-11-05 19:17:00,38.2,34.4,30.58,WSW,254,0.0,0.0,86,0.00,,,0.00,LWC V2.10 B1702,2013-11-06 00:17:00,
2013-11-05 19:22:00,38.1,34.3,30.58,WSW,254,0.0,0.0,86,0.00,,,0.00,LWC V2.10 B1702,2013-11-06 00:22:00,
2013-11-05 19:27:00,38.0,34.5,30.58,WSW,254,0.0,0.0,87,0.00,,,0.00,LWC V2.10 B1702,2013-11-06 00:27:00,
2013-11-05 19:32:00,37.9,34.4,30.58,WSW,254,0.0,0.0,87,0.00,,,0.00,LWC V2.10 B1702,2013-11-06 00:32:00,
2013-11-05 19:37:00,37.8,34.3,30.58,WSW,254,0.0,0.0,87,0.00,,,0.00,LWC V2.10 B1702,2013-11-06 00:37:00,
2013-11-05 19:42:00,37.7,34.2,30.58,WSW,254,0.0,0.0,87,0.00,,,0.00,LWC V2.10 B1702,2013-11-06 00:42:00,
2013-11-05 19:47:00,37.7,34.2,30.58,WSW,254,0.0,0.0,87,0.00,,,0.00,LWC V2.10 B1702,2013-11-06 00:47:00,
2013-11-05 19:52:00,37.7,34.2,30.58,WSW,254,0.0,0.0,87,0.00,,,0.00,LWC V2.10 B1702,2013-11-06 00:52:00,
2013-11-05 19:57:00,37.7,34.5,30.58,WSW,254,0.0,0.0,88,0.00,,,0.00,LWC V2.10 B1702,2013-11-06 00:57:00,
2013-11-05 20:02:00,37.7,34.5,30.58,WSW,254,0.0,0.0,88,0.00,,,0.00,LWC V2.10 B1702,2013-11-06 01:02:00,
2013-11-05 20:07:00,37.8,34.3,30.57,WSW,254,0.0,0.0,87,0.00,,,0.00,LWC V2.10 B1702,2013-11-06 01:07:00,
2013-11-05 20:12:00,37.8,34.3,30.57,WSW,254,0.0,0.0,87,0.00,,,0.00,LWC V2.10 B1702,2013-11-06 01:12:00,
2013-11-05 20:17:00,37.8,34.3,30.57,WSW,254,0.0,0.0,87,0.00,,,0.00,LWC V2.10 B1702,2013-11-06 01:17:00,
2013-11-05 20:22:00,37.8,34.3,30.57,WSW,254,0.0,0.0,87,0.00,,,0.00,LWC V2.10 B1702,2013-11-06 01:22:00,
2013-11-05 20:27:00,37.7,34.2,30.57,WSW,254,0.0,0.0,87,0.00,,,0.00,LWC V2.10 B1702,2013-11-06 01:27:00,
2013-11-05 20:32:00,37.7,34.2,30.58,WSW,254,0.0,0.0,87,0.00,,,0.00,LWC V2.10 B1702,2013-11-06 01:32:00,
2013-11-05 20:38:00,37.6,34.1,30.58,WSW,254,0.0,0.0,87,0.00,,,0.00,LWC V2.10 B1702,2013-11-06 01:38:00,
2013-11-05 20:43:00,37.5,34.0,30.58,WSW,254,0.0,0.0,87,0.00,,,0.00,LWC V2.10 B1702,2013-11-06 01:43:00,
2013-11-05 20:48:00,37.5,34.3,30.58,WSW,254,0.0,0.0,88,0.00,,,0.00,LWC V2.10 B1702,2013-11-06 01:48:00,
2013-11-05 20:53:00,37.4,34.2,30.58,WSW,254,0.0,0.0,88,0.00,,,0.00,LWC V2.10 B1702,2013-11-06 01:53:00,
2013-11-05 20:58:00,37.3,34.1,30.58,WSW,254,0.0,0.0,88,0.00,,,0.00,LWC V2.10 B1702,2013-11-06 01:58:00,
2013-11-05 21:03:00,37.2,34.0,30.58,WSW,254,0.0,0.0,88,0.00,,,0.00,LWC V2.10 B1702,2013-11-06 02:03:00,
2013-11-05 21:08:00,37.2,34.0,30.57,WSW,254,0.0,0.0,88,0.00,,,0.00,LWC V2.10 B1702,2013-11-06 02:08:00,
2013-11-05 21:13:00,37.2,34.3,30.57,WSW,254,0.0,0.0,89,0.00,,,0.00,LWC V2.10 B1702,2013-11-06 02:13:00,
2013-11-05 21:18:00,37.3,34.4,30.57,WSW,254,0.0,0.0,89,0.00,,,0.00,LWC V2.10 B1702,2013-11-06 02:18:00,
2013-11-05 21:23:00,37.4,34.5,30.57,WSW,254,0.0,0.0,89,0.00,,,0.00,LWC V2.10 B1702,2013-11-06 02:23:00,
2013-11-05 21:27:00,37.5,34.6,30.57,WSW,253,0.0,0.0,89,0.00,,,0.00,LWC V2.10 B1702,2013-11-06 02:27:00,
2013-11-05 21:33:00,37.6,34.7,30.57,WSW,254,0.0,0.0,89,0.00,,,0.00,LWC V2.10 B1702,2013-11-06 02:33:00,
2013-11-05 21:38:00,37.7,34.8,30.57,WSW,254,0.0,0.0,89,0.00,,,0.00,LWC V2.10 B1702,2013-11-06 02:38:00,
2013-11-05 21:43:00,37.8,34.9,30.56,WSW,254,0.0,0.0,89,0.00,,,0.00,LWC V2.10 B1702,2013-11-06 02:43:00,
2013-11-05 21:48:00,38.0,35.3,30.56,WSW,254,0.0,0.0,90,0.00,,,0.00,LWC V2.10 B1702,2013-11-06 02:48:00,
2013-11-05 21:53:00,38.2,35.5,30.56,WSW,254,0.0,0.0,90,0.00,,,0.00,LWC V2.10 B1702,2013-11-06 02:53:00,
2013-11-05 21:58:00,38.4,35.7,30.56,WSW,254,0.0,0.0,90,0.00,,,0.00,LWC V2.10 B1702,2013-11-06 02:58:00,
2013-11-05 22:03:00,38.7,36.0,30.56,WSW,254,0.0,0.0,90,0.00,,,0.00,LWC V2.10 B1702,2013-11-06 03:03:00,
2013-11-05 22:08:00,38.9,36.2,30.56,WSW,254,0.0,0.0,90,0.00,,,0.00,LWC V2.10 B1702,2013-11-06 03:08:00,
2013-11-05 22:13:00,39.0,36.0,30.55,WSW,254,0.0,0.0,89,0.00,,,0.00,LWC V2.10 B1702,2013-11-06 03:13:00,
2013-11-05 22:18:00,39.2,36.2,30.55,WSW,254,0.0,0.0,89,0.00,,,0.00,LWC V2.10 B1702,2013-11-06 03:18:00,
2013-11-05 22:23:00,39.3,36.3,30.55,WSW,254,0.0,0.0,89,0.00,,,0.00,LWC V2.10 B1702,2013-11-06 03:23:00,
2013-11-05 22:28:00,39.5,36.5,30.55,WSW,254,0.0,0.0,89,0.00,,,0.00,LWC V2.10 B1702,2013-11-06 03:28:00,
2013-11-05 22:33:00,39.6,36.6,30.54,WSW,254,0.0,0.0,89,0.00,,,0.00,LWC V2.10 B1702,2013-11-06 03:33:00,
2013-11-05 22:38:00,39.8,36.8,30.54,WSW,254,0.0,0.0,89,0.00,,,0.00,LWC V2.10 B1702,2013-11-06 03:38:00,
2013-11-05 22:43:00,40.0,36.7,30.54,WSW,254,0.0,0.0,88,0.00,,,0.00,LWC V2.10 B1702,2013-11-06 03:43:00,
2013-11-05 22:48:00,40.1,36.8,30.54,WSW,254,0.0,0.0,88,0.00,,,0.00,LWC V2.10 B1702,2013-11-06 03:48:00,
2013-11-05 22:53:00,40.2,37.2,30.54,WSW,254,0.0,0.0,89,0.00,,,0.00,LWC V2.10 B1702,2013-11-06 03:53:00,
2013-11-05 22:58:00,40.4,37.4,30.53,WSW,254,0.0,0.0,89,0.00,,,0.00,LWC V2.10 B1702,2013-11-06 03:58:00,
2013-11-05 23:03:00,40.5,37.2,30.54,WSW,254,0.0,0.0,88,0.00,,,0.00,LWC V2.10 B1702,2013-11-06 04:03:00,
2013-11-05 23:08:00,40.7,37.4,30.54,WSW,254,0.0,0.0,88,0.00,,,0.00,LWC V2.10 B1702,2013-11-06 04:08:00,
2013-11-05 23:13:00,40.7,37.4,30.54,WSW,254,0.0,0.0,88,0.00,,,0.00,LWC V2.10 B1702,2013-11-06 04:13:00,
2013-11-05 23:18:00,40.8,37.5,30.55,WSW,254,0.0,0.0,88,0.00,,,0.00,LWC V2.10 B1702,2013-11-06 04:18:00,
2013-11-05 23:23:00,40.8,37.5,30.55,WSW,254,0.0,0.0,88,0.00,,,0.00,LWC V2.10 B1702,2013-11-06 04:23:00,
2013-11-05 23:28:00,40.7,37.4,30.55,WSW,254,0.0,0.0,88,0.00,,,0.00,LWC V2.10 B1702,2013-11-06 04:28:00,
2013-11-05 23:33:00,40.7,37.4,30.54,WSW,254,0.0,0.0,88,0.00,,,0.00,LWC V2.10 B1702,2013-11-06 04:33:00,
2013-11-05 23:38:00,40.8,37.5,30.54,WSW,254,0.0,0.0,88,0.00,,,0.00,LWC V2.10 B1702,2013-11-06 04:38:00,
2013-11-05 23:43:00,40.9,37.6,30.54,WSW,254,0.0,0.0,88,0.00,,,0.00,LWC V2.10 B1702,2013-11-06 04:43:00,
2013-11-05 23:48:00,40.9,37.6,30.54,WSW,254,0.0,0.0,88,0.00,,,0.00,LWC V2.10 B1702,2013-11-06 04:48:00,
2013-11-05 23:53:00,41.1,37.8,30.53,WSW,254,0.0,0.0,88,0.00,,,0.00,LWC V2.10 B1702,2013-11-06 04:53:00,
2013-11-05 23:58:00,41.2,37.9,30.53,WSW,253,0.0,0.0,88,0.00,,,0.00,LWC V2.10 B1702,2013-11-06 04:58:00,